Regional Weather Roundup
Issued by NWS

Home | Current Version | Previous Version | Graphics & Text | Print | Product List | Glossary On
Versions: 1 2 3 4 5 6 7 8 9 10 11 12 13 14 15 16 17 18 19 20 21 22 23 24 25 26 27 28 29 30 31 32 33 34 35 36 37 38 39 40 41 42 43 44 45 46 47 48 49 50
000
ASUS43 KLMK 191310
RWRKY
KENTUCKY REGIONAL WEATHER ROUNDUP
NATIONAL WEATHER SERVICE LOUISVILLE KY
900 AM EDT SAT APR 19 2014

NOTE "FAIR" INDICATES FEW OR NO CLOUDS BELOW 12,000 FEET
WITH NO SIGNIFICANT WEATHER AND/OR OBSTRUCTIONS TO VISIBILITY.

KYZ001>023-026-027-061>063-070>075-191400-
WESTERN AND SOUTH CENTRAL KENTUCKY

CITY           SKY/WX    TMP DP  RH WIND       PRES   REMARKS
PADUCAH        MOSUNNY   57  46  66 NE3       30.23S
HENDERSON      SUNNY     54  43  66 NE6       30.27R
OWENSBORO      SUNNY     56  43  61 NE9       30.27R
HOPKINSVILLE   SUNNY     55  48  76 N6        30.23R
BOWLING GREEN  SUNNY     55  44  66 NE3       30.25R
GLASGOW        SUNNY     55  40  57 N8        30.23S
$$

KYZ024-025-028>034-038-045-046-053-191400-
NORTH CENTRAL KENTUCKY

CITY           SKY/WX    TMP DP  RH WIND       PRES   REMARKS
LOUISVILLE/SDF MOSUNNY   55  40  56 N6        30.28R
LOUISVILLE/LOU SUNNY     57  40  52 N6        30.28R
FORT KNOX      SUNNY     55  40  55 N9        30.26R
$$

KYZ035>037-039>044-047>052-055>060-089>105-191400-
NORTHEAST KENTUCKY

CITY           SKY/WX    TMP DP  RH WIND       PRES   REMARKS
LEXINGTON      SUNNY     55  42  61 N12       30.27R
COVINGTON      MOSUNNY   53  41  63 NE14      30.30R
FRANKFORT      SUNNY     54  39  57 N7        30.26R
$$

KYZ054-064>069-076>088-106>120-191400-
SOUTHEAST KENTUCKY

CITY           SKY/WX    TMP DP  RH WIND       PRES   REMARKS
JACKSON        PTSUNNY   58  36  43 VRB5      30.23R
LONDON         CLOUDY    57  37  47 N8        30.22R
SOMERSET       SUNNY     54  39  58 N5        30.24R
MIDDLESBORO    CLOUDY    51  45  78 CALM      30.21R
MONTICELLO     PTSUNNY   49  46  89 NE5       30.24R
$$




USA.gov is the U.S. government's official web portal to all federal, state and local government web resources and services.